Location: Cz?stochówka
(50.8142°N, 19.0915°E)
Time: 22:14:24
(UTC+00:00)

Cosmos 1269 Rocket - Visible Passes

Search period start: 18 April 2026 00:00
Search period end: 28 April 2026 00:00
Orbit: 769 x 774 km, 74.1° (Epoch: 18 April)

Date Brightness Start Highest point End Pass type
(mag) Time Alt. Az. Time Alt. Az. Time Alt. Az.
18 Apr 6.2 18:22:48 10° N 18:25:10 13° NE 18:27:31 10° ENE visible
18 Apr 4.4 20:03:30 10° NNW 20:08:39 50° ENE 20:10:24 36° ESE visible
18 Apr 5.3 21:46:04 10° NW 21:50:33 29° W 21:50:44 29° WSW visible
19 Apr 5.0 19:27:37 10° NNW 19:32:26 34° NE 19:35:10 21° ESE visible
19 Apr 4.6 21:09:43 10° NW 21:14:43 44° WSW 21:15:31 41° SW visible
20 Apr 5.5 18:51:50 10° N 18:56:08 24° NE 18:59:58 12° E visible
20 Apr 4.1 20:33:32 10° NNW 20:38:48 69° WSW 20:40:19 46° S visible
20 Apr 6.4 22:18:32 10° WNW 22:19:55 11° W 22:20:39 11° W visible
21 Apr 5.8 18:16:10 10° N 18:19:44 18° NE 18:23:18 10° E visible
21 Apr 4.0 19:57:29 10° NNW 20:02:47 79° ENE 20:05:08 34° SSE visible
21 Apr 5.9 21:40:49 10° NW 21:44:17 18° W 21:45:29 17° WSW visible
22 Apr 4.4 19:21:31 10° NNW 19:26:42 52° ENE 19:29:59 22° SE visible
22 Apr 5.5 21:04:08 10° NW 21:08:33 28° W 21:10:20 23° SW visible
23 Apr 4.9 18:45:38 10° NNW 18:50:29 36° NE 18:54:52 12° ESE visible
23 Apr 4.9 20:27:46 10° NW 20:32:43 42° WSW 20:35:13 25° SSW visible
24 Apr 4.3 19:51:34 10° NNW 19:56:49 66° WSW 20:00:08 23° S visible
24 Apr 6.6 21:37:06 10° W 21:37:53 10° W 21:38:41 10° W visible
25 Apr 4.0 19:15:30 10° NNW 19:20:49 82° ENE 19:25:04 16° SSE visible
25 Apr 6.2 20:58:57 10° NW 21:02:15 17° W 21:05:26 10° SW visible
26 Apr 4.3 18:39:31 10° NNW 18:44:43 55° ENE 18:49:54 10° SE visible
26 Apr 5.7 20:22:13 10° NW 20:26:32 26° W 20:30:26 12° SSW visible
27 Apr 5.1 19:45:49 10° NW 19:50:43 40° WSW 19:55:28 11° S visible
